Regional Weather Roundup
Issued by NWS

Home | Current Version | Previous Version | Graphics & Text | Print | Product List | Glossary On
Versions: 1 2 3 4 5 6 7 8 9 10 11 12 13 14 15 16 17 18 19 20 21 22 23 24 25 26 27 28 29 30 31 32 33 34 35 36 37 38 39 40 41 42 43 44 45 46 47 48 49 50
701
ASUS45 KCYS 231110
RWRWY

WYOMING REGIONAL WEATHER ROUNDUP
NATIONAL WEATHER SERVICE CHEYENNE WY
500 AM MDT MON MAY 23 2016

NOTE:  "FAIR" INDICATES FEW OR NO CLOUDS BELOW 12,000 FEET
WITH NO SIGNIFICANT WEATHER AND/OR OBSTRUCTIONS TO VISIBILITY.

WYZ001-231200-
YELLOWSTONE NATIONAL PARK

CITY           SKY/WX    TMP DP  RH WIND       PRES   REMARKS
LK YELLOWSTONE   N/A     32  26  78 CALM      29.95R
W YELLOWSTONE  NOT AVBL

$$
WYZ002>013-054>058-071-098>099-231200-
NORTHERN WYOMING

CITY           SKY/WX    TMP DP  RH WIND       PRES   REMARKS
JACKSON        FAIR      32  30  93 CALM      29.95S
CODY           FAIR      46  25  42 W7        29.82S
GREYBULL       FAIR      45  27  49 E7        29.81R
WORLAND        FAIR      37  29  72 NW6       29.82R WCI  32
SHERIDAN       FAIR      38  27  64 VRB5      29.75S WCI  34
BUFFALO        FAIR      41  24  51 SW6       29.79S
GILLETTE       FAIR      40  28  62 S8        29.79S WCI  34
HULETT         FAIR      41  32  70 S7        29.79F
NEWCASTLE      FAIR      37  32  81 CALM      29.81S

$$
WYZ014>020-022>026-101>103-231200-
CENTRAL WYOMING

CITY           SKY/WX    TMP DP  RH WIND       PRES   REMARKS
BIG PINEY      FAIR      27  24  89 NE3       29.98S
PINEDALE       FAIR      27  25  93 MISG      29.99S
DUBOIS         FAIR      28  23  80 NW12      29.92S WCI  18
LANDER         FAIR      38  21  50 MISG      29.87F
RIVERTON       FAIR      39  25  57 W7        29.88F WCI  34
CASPER         FAIR      37  29  72 W6        29.89F WCI  32
DOUGLAS        FAIR      38  30  73 CALM      29.89S

$$
WYZ021-027>030-104>119-231200-
SOUTHERN WYOMING

CITY           SKY/WX    TMP DP  RH WIND       PRES   REMARKS
EVANSTON       FAIR      34  27  75 E5        29.98F WCI  30
FORT BRIDGER   SUNNY     32  32 100 W7        30.01F WCI  26
ROCK SPRINGS   FAIR      32  30  92 W7        29.99R WCI  26
DIXON          FAIR      31  28  89 E6        30.05S WCI  25
RAWLINS        FAIR      33  28  81 SW6       30.00R WCI  28
SARATOGA       FAIR      28  28 100 E6        30.01F WCI  22
LARAMIE        FAIR      36  24  62 W7        29.98S WCI  30
CHEYENNE       FAIR      43  26  51 NW10      29.95R
TORRINGTON     NOT AVBL
PINE BLUFFS    FAIR      43  30  61 NW13      29.92S

$$




USA.gov is the U.S. government's official web portal to all federal, state and local government web resources and services.